Tracking 31027 objects as of 19-Jul-2025
HD Live streaming from Space Station
objects crossing your sky now

ION SCV-007

Track ION SCV-007 now!
10-day predictions
ION SCV-007 is classified as:


NORAD ID: 55060
Int'l Code: 2023-001BD
Perigee: 637.4 km
Apogee: 654.1 km
Inclination: 97.9 °
Period: 97.5 minutes
Semi major axis: 7016 km
RCS: Unknown
Launch date: January 3, 2023
Source: Italy (IT)
Launch site: AIR FORCE EASTERN TEST RANGE (AFETR)

Uplink (MHz):
Downlink (MHz): 401.415
Beacon (MHz):
Mode: 1200bps FSK
Call sign:
Status: Active

Your satellite tracking list
IRIDIUM 33 DEB
Track 1 satellite(s)




NASA's NSSDC Master Catalog

Two Line Element Set (TLE):
1 55060U 23001BD  25199.15007455  .00000302  00000-0  50055-4 0  9999
2 55060  97.9480 262.9862 0011874 340.8525  19.2237 14.77072353136933
Source of the keplerian elements: AFSPC